Lapse_Rate
7.8 8.3 8.4 8.7 9.0 9.3 8.6 7.3 6.9 6.6 5.9 6.7 6.7 6.2 6.9 7.2 7.4 5.8 4.5 5.4 6.1 8.7 8.3 6.9 6.8 6.6 6.8 6.4 6.8 7.0 6.5 6.5 6.5 6.5 6.5 6.3 6.5 6.3 6.8 6.1 6.2 6.0 6.4 6.7 6.1
8.0 7.9 8.2 8.2 8.0 8.1 7.7 7.7 7.1 6.8 5.8 6.4 6.7 6.1 6.5 6.2 5.1 3.8 4.9 7.0 8.4 8.2 7.2 6.6 6.3 6.7 6.4 6.4 6.1 6.3 6.5 6.5 6.5 6.5 6.5 6.3 6.2 6.1 6.3 6.2 6.4 6.6 6.6 6.2 4.8
8.1 7.8 7.7 7.9 8.1 7.7 7.4 7.3 7.2 7.1 6.6 6.7 6.8 6.5 5.9 5.6 4.7 4.2 6.1 7.0 8.3 9.5 7.1 7.3 7.4 7.2 6.6 6.2 6.1 6.4 6.5 6.5 6.4 6.1 5.9 6.3 6.3 6.3 6.3 6.5 6.5 6.4 6.6 6.5 5.3
8.3 8.0 7.7 7.7 7.1 7.7 7.5 7.1 6.6 7.1 6.3 7.1 7.0 6.2 5.9 5.1 6.5 6.8 7.6 8.2 9.6 8.0 7.4 7.1 7.0 6.7 6.4 6.5 6.2 6.5 6.4 6.5 6.4 6.6 6.4 6.5 6.5 6.3 6.0 6.4 6.8 6.7 6.5 6.2 5.9
7.4 7.8 7.5 7.9 7.2 7.2 7.7 7.0 7.1 5.5 6.5 6.7 7.4 6.5 5.4 4.8 3.7 6.6 8.9 9.5 8.3 7.2 6.8 6.9 6.7 6.3 6.5 6.4 6.7 6.5 6.5 6.5 6.6 6.5 6.5 6.7 6.4 6.5 6.3 6.7 6.3 6.5 6.6 6.0 6.1
7.8 7.6 7.4 8.2 7.9 6.9 7.5 7.6 7.5 6.4 6.1 6.9 7.6 6.5 5.4 6.3 6.4 7.1 7.5 6.8 7.2 6.8 6.7 6.8 6.4 6.4 6.6 6.6 6.5 6.3 6.4 6.4 6.5 6.5 6.5 6.5 6.4 6.2 6.4 6.5 6.5 6.2 5.9 5.5 6.4
8.6 8.4 7.7 7.3 8.3 7.7 7.4 7.4 7.2 5.8 6.4 7.3 7.5 6.0 5.3 5.2 6.5 6.7 7.2 6.6 6.8 6.3 6.3 6.8 7.6 6.9 6.6 6.5 5.8 6.4 6.5 6.5 6.4 6.4 6.4 6.0 6.5 6.5 5.4 5.7 6.5 6.6 6.3 5.6 4.7
7.9 7.8 8.5 7.8 7.9 7.4 7.4 7.1 7.0 5.7 6.5 7.1 7.0 5.6 4.5 6.3 6.3 6.9 7.0 7.2 7.2 6.5 6.8 6.9 6.3 6.6 6.7 6.5 6.2 6.5 6.5 6.5 6.5 6.5 6.3 6.2 6.5 6.5 6.0 4.8 5.6 5.8 6.1 5.2 5.3
7.9 7.5 7.5 8.0 8.0 8.0 7.0 6.9 6.8 6.6 6.3 6.8 5.6 5.4 5.9 6.6 6.7 6.8 7.2 7.5 6.0 6.3 7.2 6.9 5.9 6.3 6.5 6.5 6.5 6.5 6.5 6.5 6.5 6.5 6.5 6.5 6.5 6.5 5.6 5.2 5.7 6.1 6.2 6.0 5.7
7.8 7.7 7.4 7.5 7.8 7.4 6.8 7.0 7.3 6.6 6.4 7.1 7.1 5.8 6.3 6.5 7.4 7.3 5.9 6.8 6.7 6.4 6.9 6.4 6.3 6.5 6.5 6.5 6.5 6.5 6.5 6.5 6.5 6.5 6.5 6.5 6.5 6.5 6.6 6.9 6.7 6.5 6.2 6.0 6.4
8.1 8.1 7.6 7.6 7.8 7.7 6.1 5.9 5.3 5.5 7.0 6.4 6.1 6.2 6.2 6.0 7.0 7.2 7.4 7.2 7.0 6.6 6.5 6.2 6.5 6.5 6.5 6.5 6.5 6.5 6.5 6.5 6.5 6.5 6.5 6.5 6.5 6.5 6.7 6.6 6.3 6.3 6.1 6.6 7.0
7.6 7.9 7.6 7.5 7.3 6.5 5.3 5.5 6.0 5.8 5.9 5.4 6.0 6.0 5.9 6.4 6.5 7.1 7.1 6.4 6.4 6.5 6.5 6.5 6.5 6.5 6.5 6.5 6.5 6.5 6.5 6.5 6.5 6.5 6.5 6.5 6.5 6.5 6.5 6.5 6.7 6.8 6.5 5.8 6.4
7.4 7.6 7.7 7.8 7.2 5.7 5.9 5.5 5.5 5.4 5.7 6.6 6.3 6.1 6.0 7.1 6.5 6.5 6.7 6.5 6.4 6.5 6.5 6.5 6.5 6.5 6.5 6.5 6.5 6.5 6.5 6.5 6.5 6.5 6.5 6.5 6.5 6.5 6.5 6.6 6.9 7.0 7.1 6.9 6.4
7.4 7.4 7.5 7.3 6.0 5.9 5.6 5.6 5.3 5.4 6.5 6.5 6.5 6.9 7.0 6.8 6.4 7.2 7.1 6.7 6.5 6.5 6.5 6.5 6.5 6.5 6.5 6.5 6.5 6.5 6.5 6.5 6.5 6.5 6.5 6.5 6.5 6.5 6.5 6.5 6.5 6.7 6.8 6.9 6.6
7.0 6.7 6.3 5.3 5.8 5.1 5.2 5.0 5.3 5.0 6.5 6.5 6.4 7.2 6.8 6.5 6.4 6.7 7.0 6.7 6.5 6.5 6.5 6.5 6.5 6.5 6.5 6.5 6.5 6.5 6.5 6.5 6.5 6.5 6.5 6.5 6.5 6.5 6.5 6.5 6.5 6.5 6.8 6.6 6.3
6.8 6.7 5.8 4.6 4.1 5.4 4.8 4.9 4.8 6.5 6.5 6.5 6.4 6.5 6.5 6.5 6.5 6.3 6.2 6.6 6.2 6.5 6.5 6.5 5.8 6.5 6.5 6.5 6.5 6.5 6.5 6.5 6.5 6.5 6.5 6.5 6.5 6.5 6.5 6.5 6.5 6.5 6.9 6.8 6.1
6.7 6.2 4.8 4.6 4.7 4.4 4.2 4.4 6.5 6.5 6.5 6.5 6.5 6.5 6.5 6.5 6.5 6.5 6.5 6.5 6.5 6.5 6.5 6.5 6.5 6.5 6.4 6.5 6.5 6.5 6.5 6.5 6.5 6.5 6.5 6.5 6.5 6.5 6.5 6.5 6.5 6.5 6.8 6.8 6.1
6.5 5.6 4.4 4.9 4.0 3.5 4.1 6.2 6.5 6.5 6.5 6.5 6.5 6.5 6.5 6.5 6.5 6.5 6.5 6.5 6.5 6.5 6.5 6.5 6.5 6.5 6.5 6.5 6.5 6.5 6.5 6.5 6.5 6.5 6.5 6.5 6.5 6.5 6.5 6.5 6.8 7.0 7.1 6.8 6.7
6.4 2.7 3.1 3.3 3.7 3.2 3.9 6.5 6.5 6.5 6.5 6.5 6.5 6.5 6.5 6.5 6.5 6.5 6.5 6.5 6.5 6.5 6.5 6.5 6.5 6.5 6.5 6.5 6.5 6.5 6.5 6.5 6.5 6.5 6.5 6.5 6.5 6.5 6.5 6.5 6.5 6.7 6.9 6.9 5.9
2.3 2.8 3.3 3.5 2.2 2.2 5.8 6.5 6.5 6.5 6.5 6.5 6.5 6.5 6.5 6.5 6.5 6.5 6.5 6.5 6.5 6.5 6.3 6.5 6.5 6.5 6.5 6.3 6.5 6.5 6.5 6.5 6.5 6.5 6.5 6.5 6.5 6.5 6.5 6.5 6.5 6.5 6.6 7.0 6.5
0.4 2.4 3.0 1.7 1.2 1.9 6.5 6.5 6.5 6.3 6.2 6.5 6.5 6.5 6.5 6.5 6.5 6.5 6.5 6.5 6.5 6.5 6.4 6.5 6.5 6.5 6.5 6.5 6.5 6.5 6.5 6.5 6.5 6.5 6.5 6.5 6.5 6.5 6.5 6.5 6.5 6.5 6.6 7.0 6.7
0.9 6.1 2.2 -0.1 3.9 4.9 6.5 6.5 6.3 6.3 5.5 6.4 6.5 6.5 6.5 6.5 6.5 6.5 6.5 6.5 5.5 6.3 6.5 6.5 6.5 6.5 6.5 6.5 6.5 6.5 6.5 6.5 6.5 6.5 6.5 6.5 6.5 6.5 6.5 6.5 6.3 6.5 6.3 6.3 6.2
1.4 1.4 1.1 0.6 6.5 6.5 6.0 6.5 6.4 6.5 6.5 6.5 6.5 6.5 6.5 6.5 6.5 6.5 6.5 6.3 5.7 6.5 6.5 6.5 6.5 6.5 6.5 6.5 6.5 6.5 6.5 6.5 6.5 6.5 6.5 6.5 6.5 6.5 6.5 6.5 5.7 6.3 5.5 5.1 5.8
1.6 6.5 1.6 1.1 4.1 6.4 6.5 6.5 6.5 5.4 6.3 6.2 6.5 6.4 6.5 6.5 6.5 6.5 6.5 6.5 5.6 6.1 7.0 6.3 6.5 6.5 6.5 6.5 6.5 6.5 6.5 6.5 6.5 6.5 6.5 6.5 6.5 6.5 6.5 6.5 6.1 4.9 4.6 4.4 4.7
1.2 5.9 5.3 6.5 5.9 6.3 6.4 6.5 6.5 6.5 5.6 5.1 6.5 6.5 6.5 6.5 6.5 6.5 6.5 6.5 6.4 6.1 6.1 6.5 6.5 6.5 6.5 6.5 6.5 6.5 6.5 6.5 6.5 6.5 6.5 6.5 6.5 6.5 6.5 6.5 5.7 4.6 5.0 4.8 4.6
2.4 3.7 3.1 4.5 5.2 6.4 6.5 6.5 6.5 6.5 6.5 6.5 6.5 6.5 6.5 6.5 6.5 6.5 6.5 6.5 6.5 6.4 6.5 6.5 6.5 6.5 6.5 6.5 6.5 6.5 6.5 6.5 6.5 6.5 6.5 6.5 6.5 6.5 6.2 5.7 5.8 5.1 5.0 5.0 4.7
0.3 2.2 3.4 5.7 6.0 6.5 6.5 6.5 6.5 6.3 6.3 5.9 6.3 6.5 6.5 6.5 5.9 5.9 5.2 4.9 6.1 6.5 6.5 6.5 6.5 6.5 6.5 6.5 6.5 6.5 6.5 6.5 6.5 6.5 6.5 6.5 6.5 6.5 6.5 6.4 6.2 5.7 5.0 4.7 4.6
Wind_Speed
17 15 14 14 14 15 15 15 13 10 6 6 6 2 3 4 5 2 5 7 7 11 8 4 2 3 2 2 3 2 0 5 5 2 4 2 3 4 4 10 11 8 12 13 15
22 19 15 12 11 14 14 15 15 18 10 7 6 4 1 2 1 7 11 11 9 14 5 5 3 4 1 2 1 3 4 7 7 3 7 13 10 12 5 14 16 18 13 11 13
22 22 18 14 10 11 13 14 19 13 12 9 6 4 4 2 2 5 4 15 15 18 7 4 2 3 3 2 5 5 5 2 12 11 7 11 16 7 14 21 22 16 17 7 10
25 24 23 15 11 9 12 13 16 6 9 7 7 7 5 2 1 3 13 14 14 13 6 4 2 3 4 5 5 4 9 10 14 13 7 13 13 16 12 26 21 18 16 10 12
26 25 22 23 10 10 10 12 14 1 6 5 7 7 4 3 6 6 13 11 9 6 7 5 4 3 5 4 5 8 12 13 14 15 17 16 20 21 19 23 21 19 17 21 15
22 22 17 24 12 9 8 10 12 7 8 7 9 8 3 1 2 5 9 7 5 5 5 5 5 6 5 4 6 4 8 14 12 19 15 15 23 6 27 20 15 15 18 22 15
27 22 18 18 8 7 10 9 9 8 7 7 9 3 3 5 3 6 5 4 5 5 4 4 6 3 1 5 5 6 11 12 15 14 7 6 12 15 27 20 19 19 18 20 17
30 22 20 13 11 3 9 9 5 6 6 8 7 3 2 3 2 3 2 3 4 4 2 4 4 3 3 5 5 4 3 3 4 2 4 6 13 15 11 11 19 19 16 18 18
27 22 12 9 10 3 8 10 7 10 7 9 5 2 3 6 3 5 5 3 4 3 3 2 2 2 2 5 4 2 5 5 7 4 3 7 11 20 8 7 13 17 18 17 15
25 21 6 8 6 7 9 7 13 8 5 5 2 2 3 3 2 1 3 5 2 3 0 3 2 2 3 4 3 4 5 7 7 5 8 10 20 20 16 23 22 20 17 15 17
23 18 11 7 6 6 4 4 5 5 4 3 0 1 3 7 2 2 2 3 3 2 4 3 2 5 11 8 9 9 9 11 11 14 8 8 12 12 21 21 15 13 13 12 11
22 18 11 11 5 6 3 3 4 3 6 4 1 3 4 2 3 1 4 3 3 5 2 3 8 13 12 10 10 12 12 11 10 7 5 11 4 12 17 17 14 11 10 12 9
18 15 11 7 6 5 5 5 4 2 5 4 1 1 4 1 2 2 4 1 5 4 5 6 9 8 2 3 3 3 5 5 4 8 4 4 1 17 22 19 24 24 20 11 18
17 17 14 5 6 4 3 6 6 3 5 8 5 3 3 2 3 1 2 2 3 3 3 5 4 3 4 4 4 4 6 4 7 6 3 3 3 12 21 19 25 27 27 21 8
16 15 11 10 3 3 5 9 4 3 6 7 4 3 3 1 3 2 0 0 4 4 3 6 4 4 3 5 2 7 5 7 3 1 3 6 2 9 16 19 22 22 23 19 8
20 14 7 6 3 2 10 5 3 6 4 5 3 4 4 2 2 3 2 1 3 3 1 6 5 2 2 10 3 6 3 1 2 3 2 6 3 5 15 19 20 23 25 25 11
17 17 8 4 2 15 5 3 5 6 2 4 1 2 2 3 4 2 2 6 4 5 5 6 5 7 2 6 4 8 3 2 4 2 2 7 5 3 16 18 15 19 20 19 20
10 11 6 6 12 9 3 4 9 2 3 3 1 2 2 2 2 5 3 6 4 3 2 4 7 7 7 3 4 4 3 3 3 2 1 6 5 4 13 14 15 15 17 19 19
8 3 3 5 13 3 4 6 4 4 2 2 4 3 4 2 1 4 3 4 3 4 2 3 4 5 4 4 3 4 4 2 2 3 4 3 2 4 15 17 18 17 18 18 21
3 4 3 10 6 3 4 6 3 1 2 1 1 1 1 5 2 3 4 2 5 2 1 2 2 2 6 6 4 3 3 2 3 3 3 2 1 5 12 16 16 17 17 16 15
3 4 3 16 3 5 4 3 1 2 1 1 1 3 2 3 3 3 3 2 4 6 2 1 3 6 4 5 4 6 4 4 2 2 3 3 2 5 7 10 10 12 12 14 15
2 3 4 7 4 3 2 1 1 4 4 3 3 3 2 3 4 2 2 2 7 3 3 3 3 1 4 5 3 1 3 2 3 3 2 3 1 7 7 7 7 10 11 11 11
2 2 3 5 4 5 6 6 3 6 4 4 3 3 3 2 1 2 3 3 5 4 2 1 3 3 7 6 4 5 5 2 3 2 2 3 2 1 7 6 7 8 10 10 12
3 3 4 4 1 3 5 5 5 6 4 3 4 3 2 3 5 1 3 2 6 4 7 3 3 4 5 5 3 5 5 3 3 3 2 2 2 3 6 8 7 9 9 9 10
4 1 2 2 3 3 2 4 6 8 6 8 4 6 3 1 1 2 2 5 2 8 3 3 3 1 3 5 3 4 6 5 3 3 4 3 3 2 3 3 6 6 7 9 10
3 3 2 3 4 3 4 4 5 4 5 6 4 6 7 3 2 2 2 1 2 5 4 4 2 2 3 3 3 4 5 5 4 2 3 3 4 4 2 1 3 5 7 6 7
2 1 2 2 1 2 1 1 3 1 2 4 4 3 5 4 4 3 1 2 2 3 3 3 3 3 4 5 4 5 3 3 3 3 4 3 4 3 4 5 2 2 4 5 6
Wind_Direction
304 308 314 323 330 329 321 320 331 313 233 222 229 216 272 278 304 315 244 225 189 202 140 109 76 118 67 92 98 66 192 249 257 228 250 206 289 187 263 263 266 237 239 269 286
315 304 300 308 324 330 328 319 320 300 202 194 221 174 226 21 292 248 227 223 191 193 118 155 173 141 149 147 124 155 221 238 196 240 280 289 288 291 280 282 274 280 259 239 267
321 315 315 293 308 326 331 328 322 283 180 181 183 167 113 70 330 255 188 197 189 187 148 162 143 177 212 133 189 186 233 243 278 282 289 290 286 268 273 277 255 269 281 251 266
326 323 320 329 297 322 339 339 338 179 164 159 175 138 119 100 91 297 150 186 168 136 118 150 150 209 216 212 192 226 242 255 273 267 276 264 276 272 242 254 268 262 266 266 254
331 325 324 319 305 313 340 345 340 44 162 155 143 123 120 89 254 284 158 173 124 132 159 164 176 218 225 215 218 247 259 259 260 266 262 267 259 258 270 255 259 263 259 260 252
325 323 318 308 328 299 333 342 344 313 172 148 139 130 115 30 260 248 139 121 140 144 168 195 208 231 288 252 222 247 253 263 269 267 268 262 267 246 265 268 257 253 251 256 243
328 320 311 298 336 309 312 338 348 80 111 129 142 126 109 224 5 17 112 183 169 172 162 219 248 244 257 293 263 266 280 289 267 263 257 227 266 230 251 274 264 259 255 256 251
335 320 315 322 313 188 309 333 316 126 120 134 126 71 242 254 307 310 188 238 210 191 158 190 164 228 223 311 272 233 196 289 286 202 244 131 282 280 273 256 264 261 254 258 260
344 333 309 335 334 42 352 340 157 135 119 110 69 72 323 319 149 219 184 167 140 125 200 98 60 231 324 243 269 284 273 260 295 261 241 204 289 283 309 293 271 272 264 262 263
353 356 16 82 56 355 2 99 105 96 84 78 34 72 341 343 328 132 165 141 131 113 267 203 189 248 249 230 253 273 263 280 279 267 292 270 266 287 326 320 288 278 261 265 275
6 13 16 98 98 50 48 100 54 46 47 71 63 43 6 308 294 15 140 112 87 142 213 215 231 246 260 230 242 258 273 277 278 278 295 269 282 2 342 324 308 283 259 261 258
9 27 48 100 85 66 98 76 63 130 85 217 349 308 262 250 350 337 115 136 140 232 218 228 245 250 255 265 252 264 273 273 268 292 284 290 306 18 330 338 322 342 297 264 242
21 41 61 83 89 58 63 43 339 62 93 45 118 24 291 327 317 262 130 170 230 241 223 223 252 296 278 307 294 281 253 268 274 325 294 330 306 6 340 351 355 3 348 302 243
35 35 26 354 43 331 56 326 2 105 81 356 356 356 337 359 318 320 175 202 296 257 288 231 264 285 323 287 225 290 269 307 311 18 303 44 284 1 341 343 2 355 347 337 195
14 31 39 61 143 53 298 324 336 60 72 318 329 292 316 343 300 11 229 181 253 279 74 266 304 326 300 260 209 239 260 256 277 295 312 323 87 352 347 353 357 349 334 343 136
21 27 26 23 29 10 324 323 43 44 55 310 318 355 346 340 328 321 359 38 262 309 330 256 272 272 260 301 248 303 311 67 77 135 28 305 21 343 353 335 338 348 359 3 5
25 35 36 20 350 325 328 37 49 59 287 308 308 323 321 337 343 2 56 22 37 15 2 328 321 311 2 329 330 4 29 32 22 40 100 323 51 44 343 342 352 343 357 2 7
15 25 355 50 352 346 42 50 65 234 211 268 266 308 26 349 355 8 44 9 8 41 54 39 342 346 333 324 287 320 25 127 138 97 95 357 21 3 347 353 7 3 3 2 13
10 352 5 324 351 27 81 52 154 211 261 339 345 53 345 338 235 77 15 328 290 25 31 27 296 326 331 308 9 332 39 262 78 63 71 339 325 285 348 0 5 9 14 13 3
68 354 291 325 331 78 74 100 104 260 322 80 200 329 11 332 15 59 13 325 321 360 191 321 340 335 296 6 345 68 332 74 3 75 82 6 22 12 349 351 2 11 13 14 14
44 12 271 337 79 44 89 95 350 351 54 114 86 19 29 356 18 20 344 302 359 313 32 49 114 303 18 8 321 349 12 19 79 27 147 144 38 339 341 352 350 6 10 15 19
57 33 318 354 43 6 42 68 7 354 12 20 105 80 55 28 19 355 323 240 344 299 1 347 120 36 263 287 305 100 4 100 107 290 53 142 85 310 324 339 21 13 7 13 18
60 278 324 64 58 346 327 357 19 22 19 10 39 28 65 65 61 345 314 298 345 26 356 340 23 19 344 349 4 31 330 10 135 41 21 105 228 116 342 2 4 18 8 12 9
50 2 357 43 132 105 4 350 347 355 19 25 8 41 61 51 28 88 320 313 337 347 28 86 87 143 172 214 232 318 324 357 77 84 216 232 253 312 351 353 354 356 1 1 9
22 95 191 273 18 46 23 2 356 356 355 20 20 24 300 47 37 15 329 324 318 354 34 81 116 222 226 250 269 253 280 327 79 188 128 235 227 239 296 318 332 329 348 7 5
137 143 14 1 310 81 16 17 17 331 20 348 45 356 7 59 22 316 329 340 290 331 40 360 158 106 308 323 320 280 273 271 249 198 250 241 261 175 251 292 324 345 352 357 351
184 45 107 289 335 54 290 14 19 349 74 70 327 340 31 357 330 343 85 68 331 327 360 46 100 48 285 340 338 359 241 207 265 207 181 198 230 182 192 200 242 310 336 335 345